Location: Laura�t
(43.9341°N, 0.2497°E)
Time: 22:53:57
(UTC+00:00)

Lacrosse 4 Rocket - Pass Details

Date: 03 March 2021
Orbit: 537 x 620 km, 68.0° (Epoch: 17 April)

Event Time Altitude Azimuth Distance (km) Brightness Sun altitude
Rises 20:47:20 0° 231° (SW) 2,825 5.3 -32.0°
Reaches altitude 10° 20:49:42 10° 240° (WSW) 1,940 4.5 -32.4°
Enters shadow 20:50:56 18° 250° (WSW) 1,518 3.9 -32.6°
